Погода в Украинке

Россия / Омская область     54°39′17″N   71°19′55″E
темп.,
°C
ветер,
м/с
пор.,
м/с
влажн.,
%
обл.,
%
осадки,
мм/ч
давл.,
гПа
погр.,
м
2 марта, вт
вт200:00−17сз239781 0.1 101520
03:00−19зсз239979 0.0 101620
06:00−20з2310084 0.0 101620
09:00−19зюз2397100 0.1 1016122
12:00−16юз349390 0.1 1016240
15:00−15юз3593100 0.0 1014327
18:00−16ююз339693 0.1 101438
21:00−19ююз34980 0.0 101434
3 марта, ср
ср300:00−18ююз449811 0.0 101469
03:00−18ююз479773 0.0 1013115
06:00−19ююз499559 0.0 1013156
09:00−19ююз511930 0.0 1012246
12:00−16ююз6109142 0.0 1011388
15:00−11ююз71291100 0.1 1011628
18:00−8юз71294100 0.6 1010770
21:00−7юз61492100 0.5 1009723
4 марта, чт
чт400:00−5юз61393100 0.7 1008617
03:00−4юз61395100 0.4 1007630
06:00−4ююз61295100 0.9 1006623
09:00−3ююз71395100 0.5 1005652
12:00−1ююз81396100 1.3 1003924
15:000ююз91499100 1.2 10011036
18:000юз81494100 1.6 10001028
21:00−1юз7149596 0.3 1000846
5 марта, пт
пт500:00−2зюз8139498 0.8 1002602
03:00−8зюз8159196 0.1 1004497
06:00−11зюз7148988 0.1 1008340
09:00−12юз7159131 0.0 1009372
12:00−9юз9159166 0.1 1008742
15:00−7юз101788100 0.6 1008976
18:00−4юз101788100 0.7 1009990
21:00−3юз101787100 0.1 1009918
6 марта, сб
сб600:00−3юз91787100 0.1 1008875
03:00−4юз101793100 0.3 1007883
06:00−4юз91793100 1.1 1005809
09:00−3юз101888100 0.3 1004954
12:00−2з91579100 0.5 1005994
15:00−5з8148018 0.0 1008815
18:00−7зюз613859 0.0 1011481
21:00−11зюз512910 0.0 1013265